sat.trackr.live / text

‹ back to catalog

2025-155J

NORAD 64884 · 2025-155J

PAYLOAD ACTIVE UNKNOWN

§ Identity

Operator
Country
TBD
Launch date
2025-07-25
Launch site
VOSTO
Launch vehicle
Mass (kg)
RCS (m²)

External: N2YO · Heavens-Above · Gunter

§ Orbital elements

Epoch: 2026-05-25T03:07:04.199808Z

Period
94.17 min
Inclination
97.4551°
Eccentricity
0.0005244
Mean motion
15.29076111 rev/d
Perigee alt
475.0 km
Apogee alt
482.2 km
Semi-major
6,856.7 km
B*
3.5091e-4
RAAN
113.5626°
Arg perigee
248.9473°
Mean anomaly
111.1207°
Rev number
7,723

§ Raw data

2025-155J1 64884U 25155J   26145.12990972  .00009836  00000+0  35091-3 0  99912 64884  97.4551 113.5626 0005244 248.9473 111.1207 15.29076111 77234

JSON: /api/v1/satellites/64884 · /tle

For live sub-satellite position, see the globe view (requires WebGL).

§ Visibility from observer

Set your observer location to see the next 7 days of passes ≥ 10°. The values pass through the URL so the page stays shareable.

No JS? Fill the form by hand. The geolocation button needs JavaScript.